Showing default

ALSAT 2B, 41786

Orbit data source: Space-Track

ALSAT 2B, 41786 is a payload satellite owned by ASAL (DZ) in SSO that was launched on Mon, 26 Sep 2016 UTC via a PSLV launch vehicle from the Sirharikota (SRI). Payload-class satellites include a variety of spacecraft equipped with specific instruments for various scientific and technological missions. These include communications satellites like Starlink; space stations such as the ISS; scientific satellites like the Hubble; Earth observation satellites from companies like Planet Labs, Umbra, and HawkEye 360; GPS; miniature CubeSats for education and research; and military/defense satellites.

Loading next visibility...
Identifier
41786, 2016-059D
Orbit
SSO
Last TLE update
7 hours ago
Origin
Manufacturer
Airbus/Toulouse
Mission
Operational Civil Imaging
Bus & Motor
MYRIADE, AOCS
Mass
117 kg wet, 117 kg dry
Launch date (UTC)
2016-09-26 (9 years ago)
Launch vehicle
PSLV
Launch site
Sirharikota (SRI)
Object type
Payload
Rocket body
Debris
Shape & HBR
Box + 1 Pan, 1.8 m
Radar Cross Section
0.912 m², Medium (>0.1 m² and < 1m²)

Expand to show TLE details & history

TLE from 7 hours ago
0 ALSAT 2B
1 41786U 16059D   25128.95181268  .00001008  00000-0  17593-3 0  9992
2 41786  98.0407 192.9195 0002111  84.5924 275.5522 14.70085824461366
Epoch: 2025-05-08T22:50Z
Definitive object data (Epoch: 2025-05-08T22:50:36.615Z)
Latitude
-0.00011°
Longitude
-16.74798°
Altitude
663.654 km
Speed
7.525 km/s
True Right ascension
12h 51m 40s
True Declination
0° 00' 00"
Sunlit
Object was in full shadow at TLE epoch
Visualization TLE readout
Latitude
65.40896°
Longitude
-34.34658°
Altitude
670.66 km
Speed
7.529 km/s
Apparent Right ascension
04h 01m 18s
Apparent Declination
38° 55' 22"
Sunlit
Object is in daylight
Visualization observer readout
Local Sidereal Time
13:49:27
Azimuth
334.829° NNW
Elevation
-5.596°
Doppler factor
1
Orbital elements
Apogee altitude
659.34 km
Perigee altitude
656.369 km
Semi-major axis
7,035.992 km
Eccentricity
0.0002111
Inclination
98.0407°
RAAN
192.9195°
Arg. of periapsis
84.5924°
True anomaly
275.52812°
Mean anomaly
275.5522°
Eccentric anomaly
275.54016°
Mean motion
3.67752 °/min
BSTAR
0.00017593
Orbital period
97.89 mins
Loading maneuver chart data...
Loading SW <> Apogee altitude chart data...
Loading historical data...
Loading historical data...
Loading historical data...
Loading historical data...
Loading historical data...
Loading historical data...
Loading historical data...

ALSAT 2B Visibility forecast

Observer location: undefined°, undefined°

Span
Click to sort rows by Start time (UTC) header in descending order
Start Az.
Max El. time (UTC)
Max El. Az.
Max El.
End time (UTC)
End Az.
7 mins2025-05-09 17:23:45.083Z359.855° N2025-05-09 17:26:45.083Z268.429° W40.986°2025-05-09 17:30:45.083Z206.554° SW
7 mins2025-05-10 04:22:45.083Z175.986° S2025-05-10 04:25:45.083Z265.361° W43.689°2025-05-10 04:29:45.083Z342.582° N
|